Погода в Сурково

Россия / Новосибирская область     55°18′22″N   84°30′55″E
темп.,
°C
ветер,
м/с
пор.,
м/с
влажн.,
%
обл.,
%
осадки,
мм/ч
давл.,
гПа
погр.,
м
14 мая, пт
пт1401:00+11с51073100 0.0 1014401
04:00+9с497761 0.0 1015291
07:00+10с41065100 0.0 1017457
10:00+13ссз6746100 0.0 1018967
13:00+15ссз6748100 0.0 10201634
16:00+14ссз5740100 0.0 10211394
19:00+15ссз5633100 0.0 10211378
22:00+10ссз2244100 0.0 102312
15 мая, сб
сб1501:00+11зюз224396 0.0 102359
04:00+9зюз374676 0.0 1023136
07:00+10юз4114998 0.0 1022319
10:00+14зюз71345100 0.0 1022619
13:00+19з91134100 0.0 10201192
16:00+14ююз511606 0.7 1019494
19:00+20зюз61143100 0.7 10171277
22:00+16юз2260100 0.1 101630
16 мая, вс
вс1601:00+14юз41464100 0.1 1015318
04:00+13юз366996 0.0 1014100
07:00+13юз4107371 0.0 1014291
10:00+20зюз58566 0.0 1012623
13:00+25з71043100 0.0 10101563
16:00+26з8123979 0.0 10082963
19:00+20ссз6106187 0.5 1010989
22:00+15с487593 0.0 1012390
17 мая, пн
пн1701:00+11св2490100 0.0 101491
04:00+9юв2393100 0.0 101359
07:00+11юз2487100 0.0 1014143
10:00+13ююв238235 0.1 1013137
13:00+20зсз5861100 0.8 10111163
16:00+22сз8124333 0.1 10112124
19:00+20с575120 0.1 10121353
22:00+13св36765 0.0 1013116
18 мая, вт
вт1801:00+11вюв3487100 0.0 101375
04:00+11юз1292100 0.9 101032
07:00+14ю51194100 4.4 1005269
10:00+20зсз8116141 0.1 10041046
13:00+19ссз796596 0.3 10061242
16:00+16с777038 0.1 1007796
19:00+12ссв567348 0.1 1009653
22:00+9всв468392 0.0 1010330